HAZ705 ZSPD-RCTP

Flight info

Callsign HAZ705
Flight time N/A
Altitude 38100
Route MIGOL B591 KASKA/N0458F380 B591 BERBA/N0431F240 B591 BAKER
Aircraft B738/M-SDE2E3FGHIRWXY/LB1

Departure

Time 2026-05-06 16:41
Airport Shanghai Pudong International Airport (ZSPD)

Arrival

Time N/A
Airport Taiwan Taoyuan International Airport (RCTP)
Time Latitude Longitude Altitude Speed Heading
2026-05-06 16:19 31.14745 121.79810 21 ft 0 kts 71°
2026-05-06 16:22 31.14744 121.79809 21 ft 1 kts 72°
2026-05-06 16:22 31.14740 121.79792 21 ft 2 kts 71°
2026-05-06 16:22 31.14735 121.79776 21 ft 2 kts 71°
2026-05-06 16:23 31.14730 121.79759 21 ft 2 kts 71°
2026-05-06 16:23 31.14725 121.79742 21 ft 2 kts 71°
2026-05-06 16:23 31.14721 121.79726 21 ft 1 kts 72°
2026-05-06 16:23 31.14717 121.79715 21 ft 2 kts 57°
2026-05-06 16:24 31.14707 121.79703 21 ft 2 kts 30°
2026-05-06 16:24 31.14692 121.79697 21 ft 2 kts
2026-05-06 16:24 31.14682 121.79698 21 ft 0 kts 344°
2026-05-06 16:24 31.14675 121.79701 21 ft 0 kts 341°
2026-05-06 16:28 31.14682 121.79698 21 ft 2 kts 343°
2026-05-06 16:28 31.14717 121.79691 21 ft 7 kts 350°
2026-05-06 16:29 31.14778 121.79662 21 ft 11 kts 341°
2026-05-06 16:29 31.14856 121.79633 21 ft 11 kts 342°
2026-05-06 16:29 31.14926 121.79597 21 ft 10 kts 309°
2026-05-06 16:29 31.14922 121.79523 21 ft 9 kts 226°
2026-05-06 16:30 31.14903 121.79461 21 ft 8 kts 264°
2026-05-06 16:30 31.14899 121.79418 21 ft 7 kts 264°
2026-05-06 16:30 31.14881 121.79346 21 ft 6 kts 253°
2026-05-06 16:30 31.14888 121.79303 21 ft 5 kts 306°
2026-05-06 16:31 31.14912 121.79274 21 ft 4 kts 345°
2026-05-06 16:31 31.14941 121.79263 21 ft 4 kts 337°
2026-05-06 16:31 31.14967 121.79252 21 ft 3 kts 342°
2026-05-06 16:31 31.14988 121.79243 21 ft 2 kts 342°
2026-05-06 16:32 31.15006 121.79237 21 ft 3 kts 341°
2026-05-06 16:32 31.15049 121.79218 21 ft 9 kts 339°
2026-05-06 16:32 31.15124 121.79181 21 ft 14 kts 335°
2026-05-06 16:32 31.15226 121.79118 21 ft 19 kts 329°
2026-05-06 16:33 31.15339 121.79078 21 ft 10 kts
2026-05-06 16:33 31.15375 121.79079 21 ft 3 kts
2026-05-06 16:33 31.15414 121.79078 21 ft 6 kts 354°
2026-05-06 16:34 31.15496 121.79054 21 ft 5 kts 341°
2026-05-06 16:34 31.15529 121.79041 21 ft 5 kts 341°
2026-05-06 16:34 31.15562 121.79028 21 ft 4 kts 342°
2026-05-06 16:34 31.15592 121.79017 21 ft 4 kts 342°
2026-05-06 16:35 31.15619 121.79007 21 ft 3 kts 342°
2026-05-06 16:35 31.15642 121.78998 21 ft 4 kts 341°
2026-05-06 16:35 31.15689 121.78979 21 ft 9 kts 340°
2026-05-06 16:35 31.15768 121.78949 21 ft 13 kts 357°
2026-05-06 16:36 31.15866 121.78913 21 ft 15 kts 340°
2026-05-06 16:36 31.15969 121.78870 21 ft 15 kts 339°
2026-05-06 16:36 31.16069 121.78850 21 ft 14 kts 358°
2026-05-06 16:36 31.16127 121.78822 21 ft 7 kts 317°
2026-05-06 16:37 31.16163 121.78778 21 ft 4 kts 306°
2026-05-06 16:37 31.16160 121.78770 21 ft 1 kts 242°
2026-05-06 16:37 31.16159 121.78767 21 ft 0 kts 242°
2026-05-06 16:38 31.16158 121.78749 21 ft 4 kts 302°
2026-05-06 16:38 31.16165 121.78736 21 ft 4 kts 285°
2026-05-06 16:39 31.16139 121.78698 21 ft 8 kts 223°
2026-05-06 16:39 31.16110 121.78637 21 ft 10 kts 225°
2026-05-06 16:39 31.16047 121.78627 21 ft 9 kts 167°
2026-05-06 16:39 31.15987 121.78645 21 ft 8 kts 164°
2026-05-06 16:40 31.15893 121.78683 21 ft 36 kts 162°
2026-05-06 16:40 31.15395 121.78857 21 ft 109 kts 161°
2026-05-06 16:40 31.14513 121.79204 24 ft 164 kts 162°
2026-05-06 16:40 31.13407 121.79614 458 ft 179 kts 162°
2026-05-06 16:41 31.12362 121.80076 1579 ft 160 kts 157°
2026-05-06 16:41 31.11387 121.80501 2239 ft 158 kts 172°
2026-05-06 16:41 31.10244 121.80789 2581 ft 178 kts 172°
2026-05-06 16:41 31.08943 121.81001 3034 ft 195 kts 171°
2026-05-06 16:42 31.07573 121.81359 3519 ft 210 kts 165°
2026-05-06 16:42 31.06124 121.81883 4008 ft 225 kts 163°
2026-05-06 16:42 31.04590 121.82470 4533 ft 238 kts 163°
2026-05-06 16:42 31.02986 121.83073 5180 ft 245 kts 163°
2026-05-06 16:43 31.01331 121.83685 5863 ft 251 kts 163°
2026-05-06 16:43 30.99656 121.84302 6532 ft 256 kts 163°
2026-05-06 16:43 30.97953 121.85020 7176 ft 265 kts 160°
2026-05-06 16:43 30.96205 121.85849 7677 ft 279 kts 159°
2026-05-06 16:44 30.94374 121.86739 8306 ft 288 kts 159°
2026-05-06 16:44 30.92500 121.87616 8989 ft 293 kts 161°
2026-05-06 16:44 30.90572 121.88378 9696 ft 296 kts 164°
2026-05-06 16:44 30.88580 121.89088 10425 ft 299 kts 165°
2026-05-06 16:45 30.86595 121.89799 11145 ft 297 kts 163°
2026-05-06 16:45 30.84713 121.90752 11599 ft 296 kts 150°
2026-05-06 16:45 30.83170 121.92394 11755 ft 310 kts 127°
2026-05-06 16:45 30.82180 121.94658 12027 ft 317 kts 109°
2026-05-06 16:46 30.81730 121.97203 12108 ft 329 kts 96°
2026-05-06 16:46 30.81835 121.99932 12159 ft 339 kts 78°
2026-05-06 16:46 30.82480 122.02618 12247 ft 346 kts 71°
2026-05-06 16:46 30.83281 122.05271 12310 ft 353 kts 70°
2026-05-06 16:47 30.84115 122.07976 12349 ft 359 kts 70°
2026-05-06 16:47 30.84535 122.09367 12366 ft 362 kts 70°
2026-05-06 16:47 30.84724 122.10002 12374 ft 363 kts 70°
2026-05-06 16:48 30.85541 122.12800 12407 ft 368 kts 71°
2026-05-06 16:48 30.86350 122.15649 12441 ft 372 kts 71°
2026-05-06 16:48 30.87152 122.18521 12518 ft 374 kts 72°
2026-05-06 16:48 30.87946 122.21391 12670 ft 375 kts 72°
2026-05-06 16:49 30.88755 122.24322 12705 ft 378 kts 72°
2026-05-06 16:49 30.89593 122.27226 12734 ft 381 kts 69°
2026-05-06 16:49 30.90743 122.30018 12759 ft 382 kts 57°
2026-05-06 16:49 30.92313 122.32534 12784 ft 383 kts 50°
2026-05-06 16:50 30.94055 122.34869 12810 ft 384 kts 46°
2026-05-06 16:50 30.95865 122.37157 12833 ft 385 kts 46°
2026-05-06 16:50 30.95902 122.37204 12833 ft 385 kts 46°
2026-05-06 16:50 30.96217 122.37598 12838 ft 386 kts 46°
2026-05-06 16:51 30.98006 122.39900 13083 ft 380 kts 49°
2026-05-06 16:51 30.99432 122.42442 13477 ft 372 kts 66°
2026-05-06 16:51 31.00089 122.45332 13952 ft 363 kts 84°
2026-05-06 16:51 31.00183 122.48215 14401 ft 351 kts 90°
2026-05-06 16:52 31.00152 122.51030 14550 ft 352 kts 91°
2026-05-06 16:52 31.00104 122.53925 14590 ft 356 kts 91°
2026-05-06 16:52 31.00069 122.56806 14619 ft 360 kts 91°
2026-05-06 16:52 31.00047 122.59741 14650 ft 363 kts 90°
2026-05-06 16:53 31.00037 122.62677 14684 ft 365 kts 90°
2026-05-06 16:53 31.00034 122.65680 14713 ft 367 kts 91°
2026-05-06 16:53 31.00035 122.68669 14730 ft 369 kts 90°
2026-05-06 16:53 31.00037 122.71653 14758 ft 370 kts 91°
2026-05-06 16:54 31.00039 122.74643 14784 ft 371 kts 91°
2026-05-06 16:54 31.00038 122.77652 14810 ft 371 kts 90°
2026-05-06 16:54 31.00037 122.80673 14833 ft 372 kts 91°
2026-05-06 16:54 31.00034 122.83675 14854 ft 373 kts 91°
2026-05-06 16:55 31.00031 122.86691 14877 ft 374 kts 91°
2026-05-06 16:55 31.00027 122.89743 14899 ft 374 kts 91°
2026-05-06 16:55 31.00022 122.92783 14929 ft 375 kts 91°
2026-05-06 16:55 30.99992 122.95801 14937 ft 375 kts 93°
2026-05-06 16:56 30.99777 122.98826 14958 ft 374 kts 99°
2026-05-06 16:56 30.99254 123.01784 14980 ft 373 kts 106°
2026-05-06 16:56 30.99040 123.02667 14987 ft 373 kts 108°
2026-05-06 16:56 30.98493 123.04632 15000 ft 373 kts 111°
2026-05-06 16:57 30.97592 123.07439 15018 ft 373 kts 113°
2026-05-06 16:57 30.96629 123.10233 15193 ft 364 kts 114°
2026-05-06 16:57 30.95694 123.12903 15310 ft 353 kts 114°
2026-05-06 16:57 30.94777 123.15524 15468 ft 343 kts 114°
2026-05-06 16:58 30.93905 123.18037 15683 ft 334 kts 113°
2026-05-06 16:58 30.93026 123.20585 15992 ft 341 kts 113°
2026-05-06 16:58 30.92125 123.23207 16100 ft 355 kts 113°
2026-05-06 16:58 30.91197 123.25917 16181 ft 368 kts 113°
2026-05-06 16:59 30.90236 123.28726 16249 ft 379 kts 113°
2026-05-06 16:59 30.89242 123.31638 16304 ft 390 kts 113°
2026-05-06 16:59 30.88228 123.34603 16357 ft 399 kts 113°
2026-05-06 16:59 30.87193 123.37632 16400 ft 407 kts 113°
2026-05-06 17:00 30.86134 123.40728 16439 ft 414 kts 112°
2026-05-06 17:00 30.85065 123.43851 16481 ft 420 kts 112°
2026-05-06 17:00 30.83973 123.47038 16567 ft 424 kts 112°
2026-05-06 17:00 30.82867 123.50267 16662 ft 428 kts 112°
2026-05-06 17:01 30.81777 123.53440 16817 ft 429 kts 112°
2026-05-06 17:01 30.80651 123.56718 16963 ft 430 kts 112°
2026-05-06 17:01 30.79536 123.59943 17111 ft 432 kts 114°
2026-05-06 17:01 30.78216 123.63066 17299 ft 432 kts 122°
2026-05-06 17:02 30.76364 123.65771 17442 ft 429 kts 140°
2026-05-06 17:02 30.73932 123.67738 17599 ft 424 kts 156°
2026-05-06 17:02 30.71166 123.68913 17692 ft 421 kts 170°
2026-05-06 17:02 30.68254 123.69416 17852 ft 418 kts 178°
2026-05-06 17:03 30.65361 123.69592 17970 ft 418 kts 181°
2026-05-06 17:03 30.62438 123.69625 18112 ft 418 kts 183°
2026-05-06 17:03 30.59518 123.69591 18244 ft 419 kts 184°
2026-05-06 17:03 30.56589 123.69540 18392 ft 419 kts 184°
2026-05-06 17:04 30.53653 123.69494 18526 ft 420 kts 184°
2026-05-06 17:04 30.50747 123.69462 18676 ft 420 kts 184°
2026-05-06 17:04 30.47813 123.69441 18770 ft 422 kts 183°
2026-05-06 17:04 30.44869 123.69430 18905 ft 422 kts 183°
2026-05-06 17:05 30.41912 123.69425 19032 ft 423 kts 183°
2026-05-06 17:05 30.38944 123.69424 19111 ft 425 kts 183°
2026-05-06 17:05 30.35972 123.69425 19214 ft 426 kts 183°
2026-05-06 17:05 30.33022 123.69428 19332 ft 426 kts 183°
2026-05-06 17:06 30.30051 123.69429 19475 ft 426 kts 183°
2026-05-06 17:06 30.27067 123.69431 19593 ft 427 kts 183°
2026-05-06 17:06 30.24066 123.69432 19699 ft 428 kts 183°
2026-05-06 17:06 30.21099 123.69434 19817 ft 428 kts 183°
2026-05-06 17:07 30.18083 123.69434 19902 ft 429 kts 183°
2026-05-06 17:07 30.15097 123.69434 20020 ft 429 kts 183°
2026-05-06 17:07 30.12102 123.69435 20127 ft 430 kts 184°
2026-05-06 17:07 30.09108 123.69435 20206 ft 431 kts 183°
2026-05-06 17:08 30.06109 123.69434 20315 ft 431 kts 183°
2026-05-06 17:08 30.03074 123.69434 20390 ft 432 kts 184°
2026-05-06 17:08 30.00074 123.69434 20458 ft 434 kts 184°
2026-05-06 17:08 29.97017 123.69435 20545 ft 434 kts 184°
2026-05-06 17:09 29.93989 123.69435 20654 ft 434 kts 184°
2026-05-06 17:09 29.90960 123.69436 20731 ft 435 kts 184°
2026-05-06 17:09 29.87937 123.69435 20791 ft 436 kts 184°
2026-05-06 17:09 29.84865 123.69434 20918 ft 435 kts 184°
2026-05-06 17:10 29.81822 123.69434 20991 ft 435 kts 184°
2026-05-06 17:10 29.78802 123.69434 21064 ft 436 kts 184°
2026-05-06 17:10 29.75751 123.69434 21127 ft 437 kts 184°
2026-05-06 17:10 29.72702 123.69435 21225 ft 436 kts 184°
2026-05-06 17:11 29.69640 123.69436 21304 ft 436 kts 184°
2026-05-06 17:11 29.66601 123.69436 21353 ft 437 kts 184°
2026-05-06 17:11 29.63567 123.69436 21410 ft 438 kts 184°
2026-05-06 17:11 29.60484 123.69436 21491 ft 438 kts 184°
2026-05-06 17:12 29.57451 123.69435 21556 ft 439 kts 184°
2026-05-06 17:12 29.54357 123.69435 21608 ft 439 kts 184°
2026-05-06 17:12 29.51297 123.69435 21673 ft 440 kts 184°
2026-05-06 17:12 29.48220 123.69434 21753 ft 440 kts 184°
2026-05-06 17:13 29.45167 123.69435 21824 ft 440 kts 184°
2026-05-06 17:13 29.42092 123.69435 21884 ft 440 kts 184°
2026-05-06 17:13 29.39008 123.69436 21946 ft 440 kts 184°
2026-05-06 17:13 29.35946 123.69436 22020 ft 440 kts 184°
2026-05-06 17:14 29.32858 123.69435 22080 ft 441 kts 184°
2026-05-06 17:14 29.29771 123.69435 22126 ft 441 kts 184°
2026-05-06 17:14 29.26713 123.69434 22183 ft 441 kts 184°
2026-05-06 17:14 29.23633 123.69434 22240 ft 442 kts 184°
2026-05-06 17:15 29.20523 123.69434 22299 ft 442 kts 184°
2026-05-06 17:15 29.17436 123.69434 22351 ft 442 kts 184°
2026-05-06 17:15 29.14382 123.69434 22405 ft 443 kts 184°
2026-05-06 17:15 29.11279 123.69434 22469 ft 443 kts 184°
2026-05-06 17:16 29.08172 123.69436 22518 ft 443 kts 184°
2026-05-06 17:16 29.05080 123.69437 22584 ft 443 kts 184°
2026-05-06 17:16 29.02008 123.69437 22635 ft 443 kts 184°
2026-05-06 17:16 28.98906 123.69437 22685 ft 444 kts 184°
2026-05-06 17:17 28.95801 123.69437 22751 ft 444 kts 184°
2026-05-06 17:17 28.92698 123.69437 22797 ft 444 kts 184°
2026-05-06 17:17 28.89613 123.69437 22849 ft 445 kts 184°
2026-05-06 17:17 28.86504 123.69437 22904 ft 445 kts 184°
2026-05-06 17:18 28.83425 123.69437 22951 ft 445 kts 184°
2026-05-06 17:18 28.80306 123.69437 22998 ft 446 kts 184°
2026-05-06 17:18 28.77161 123.69437 23041 ft 446 kts 184°
2026-05-06 17:18 28.74070 123.69436 23084 ft 447 kts 184°
2026-05-06 17:19 28.70952 123.69435 23126 ft 447 kts 184°
2026-05-06 17:19 28.67831 123.69435 23170 ft 447 kts 184°
2026-05-06 17:19 28.64681 123.69436 23218 ft 448 kts 184°
2026-05-06 17:19 28.61587 123.69437 23270 ft 448 kts 184°
2026-05-06 17:20 28.58444 123.69437 23319 ft 448 kts 184°
2026-05-06 17:20 28.55335 123.69437 23368 ft 448 kts 184°
2026-05-06 17:20 28.52215 123.69437 23417 ft 448 kts 184°
2026-05-06 17:20 28.49052 123.69438 23459 ft 448 kts 184°
2026-05-06 17:21 28.45935 123.69438 23500 ft 449 kts 184°
2026-05-06 17:21 28.42796 123.69439 23546 ft 449 kts 184°
2026-05-06 17:21 28.39674 123.69440 23592 ft 449 kts 184°
2026-05-06 17:21 28.36530 123.69439 23633 ft 449 kts 184°
2026-05-06 17:22 28.33392 123.69437 23679 ft 449 kts 184°
2026-05-06 17:22 28.30241 123.69436 23723 ft 450 kts 184°
2026-05-06 17:22 28.27137 123.69436 23767 ft 450 kts 184°
2026-05-06 17:22 28.23990 123.69435 23807 ft 450 kts 184°
2026-05-06 17:23 28.20846 123.69435 23851 ft 451 kts 184°
2026-05-06 17:23 28.17707 123.69435 23892 ft 451 kts 184°
2026-05-06 17:23 28.14541 123.69434 23928 ft 451 kts 184°
2026-05-06 17:23 28.11390 123.69435 23970 ft 451 kts 184°
2026-05-06 17:24 28.08259 123.69436 24011 ft 452 kts 184°
2026-05-06 17:24 28.05078 123.69436 24051 ft 452 kts 184°
2026-05-06 17:24 28.01919 123.69436 24094 ft 452 kts 184°
2026-05-06 17:24 27.98783 123.69392 24180 ft 452 kts 187°
2026-05-06 17:25 27.95652 123.68928 24218 ft 446 kts 197°
2026-05-06 17:25 27.92708 123.67922 24260 ft 441 kts 206°
2026-05-06 17:25 27.89972 123.66405 24300 ft 436 kts 214°
2026-05-06 17:25 27.87387 123.64546 24339 ft 434 kts 218°
2026-05-06 17:26 27.84935 123.62596 24374 ft 433 kts 220°
2026-05-06 17:26 27.82490 123.60567 24414 ft 433 kts 220°
2026-05-06 17:26 27.80088 123.58546 24454 ft 432 kts 221°
2026-05-06 17:26 27.77672 123.56515 24491 ft 432 kts 220°
2026-05-06 17:27 27.75230 123.54474 24528 ft 432 kts 220°
2026-05-06 17:27 27.72814 123.52471 24564 ft 432 kts 220°
2026-05-06 17:27 27.70360 123.50451 24601 ft 433 kts 220°
2026-05-06 17:27 27.67913 123.48448 24643 ft 432 kts 220°
2026-05-06 17:28 27.65490 123.46473 24680 ft 432 kts 220°
2026-05-06 17:28 27.63029 123.44474 24720 ft 432 kts 220°
2026-05-06 17:28 27.60600 123.42506 24761 ft 432 kts 220°
2026-05-06 17:28 27.58128 123.40504 24798 ft 432 kts 219°
2026-05-06 17:29 27.55695 123.38537 24833 ft 432 kts 219°
2026-05-06 17:29 27.53257 123.36567 24868 ft 432 kts 220°
2026-05-06 17:29 27.50780 123.34568 24903 ft 432 kts 219°
2026-05-06 17:29 27.48344 123.32604 24939 ft 433 kts 219°
2026-05-06 17:30 27.45877 123.30614 24974 ft 433 kts 219°
2026-05-06 17:30 27.43439 123.28649 25009 ft 433 kts 219°
2026-05-06 17:30 27.40990 123.26678 25048 ft 433 kts 219°
2026-05-06 17:30 27.38503 123.24676 25087 ft 433 kts 219°
2026-05-06 17:31 27.36070 123.22720 25123 ft 433 kts 219°
2026-05-06 17:31 27.33607 123.20740 25159 ft 433 kts 219°
2026-05-06 17:31 27.31167 123.18780 25195 ft 433 kts 219°
2026-05-06 17:31 27.28687 123.16788 25230 ft 433 kts 219°
2026-05-06 17:32 27.26216 123.14805 25261 ft 433 kts 219°
2026-05-06 17:32 27.23774 123.12846 25294 ft 434 kts 219°
2026-05-06 17:32 27.21303 123.10865 25330 ft 434 kts 219°
2026-05-06 17:32 27.18830 123.08883 25364 ft 434 kts 219°
2026-05-06 17:33 27.16383 123.06924 25401 ft 433 kts 219°
2026-05-06 17:33 27.13941 123.04969 25439 ft 433 kts 219°
2026-05-06 17:33 27.11466 123.02989 25472 ft 433 kts 219°
2026-05-06 17:33 27.09017 123.01032 25506 ft 433 kts 219°
2026-05-06 17:34 27.06541 122.99055 25544 ft 433 kts 219°
2026-05-06 17:34 27.04069 122.97084 25579 ft 432 kts 219°
2026-05-06 17:34 27.01642 122.95152 25609 ft 432 kts 219°
2026-05-06 17:34 26.99156 122.93175 25638 ft 432 kts 219°
2026-05-06 17:35 26.96713 122.91232 25670 ft 432 kts 219°
2026-05-06 17:35 26.94255 122.89279 25700 ft 433 kts 219°
2026-05-06 17:35 26.91784 122.87318 25697 ft 430 kts 219°
2026-05-06 17:36 26.87620 122.84015 25693 ft 426 kts 219°
2026-05-06 17:36 26.85208 122.82103 25692 ft 424 kts 219°
2026-05-06 17:36 26.82796 122.80193 25692 ft 423 kts 219°
2026-05-06 17:36 26.80379 122.78279 25693 ft 421 kts 219°
2026-05-06 17:37 26.79115 122.77279 25692 ft 420 kts 219°
2026-05-06 17:37 26.78013 122.76405 25690 ft 420 kts 219°
2026-05-06 17:37 26.75617 122.74509 25688 ft 419 kts 219°
2026-05-06 17:37 26.74244 122.73423 25687 ft 418 kts 219°
2026-05-06 17:38 26.72460 122.72012 25688 ft 417 kts 219°
2026-05-06 17:38 26.71107 122.70941 25689 ft 416 kts 219°